Regional Weather Roundup
Issued by NWS Sterling, VA

Home | Current Version | Previous Version | Graphics & Text | Print | Product List | Glossary On
Versions: 1 2 3 4 5 6 7 8 9 10 11 12 13 14 15 16 17 18 19 20 21 22 23 24 25 26 27 28 29 30 31 32 33 34 35 36 37 38 39 40 41 42 43 44 45 46 47 48 49 50
000
ASUS41 KLWX 150511
RWRLWX

REGIONAL WEATHER ROUNDUP
NATIONAL WEATHER SERVICE BALTIMORE MD/WASHINGTON DC
1200 AM EST FRI DEC 15 2017

Note: "FAIR" indicates few or no clouds below 12,000 feet
with no significant weather and/or obstructions to visibility.
 TC=TEMPERATURE CELSIUS

 * =Non NWS site. Station does not report precipitation (e.g. rain,
    snow, etc.), thunder, or fog.

DCZ001-MDZ009-015-VAZ040>042-051-053>054-150600-
WASHINGTON METRO

CITY           SKY/WX    TMP DP  RH WIND       PRES   REMARKS
WASHINGTON NAT MOCLDY    31  13  47 NE7       30.12S
DULLES         CLOUDY    28  12  51 N6        30.11R
ANDREWS AFB    MOCLDY    27  11  50 NE7         N/A
FT BELVOIR     PTCLDY    29  13  50 CALM      30.12R
QUANTICO       PTCLDY    31  14  49 N6        30.13S
COLLEGE PARK*  PTCLDY    29   9  43 N3        30.11F
LEESBURG*      CLOUDY    30  14  51 NE3       30.11S
MANASSAS*      PTCLDY    27  14  58 N5        30.12S
GAITHERSBURG*  PTCLDY    26  11  52 CALM      30.09S

$$

MDZ006>007-011-014-150600-
BALTIMORE METRO

CITY           SKY/WX    TMP DP  RH WIND       PRES   REMARKS
BWI AIRPORT    CLOUDY    28  10  46 N7        30.10S
MD SCIENCE CTR   N/A     31  11  43 MISG      30.11R
MARTIN STATE   MOCLDY    30  14  51 NW5       30.13S
ANNAPOLIS      CLOUDY    32  17  54 N9        30.11S WCI  24
FORT MEADE*    CLOUDY    28  10  47 CALM      30.13S

$$

MDZ012-015-019>023-150600-
MARYLAND EASTERN SHORE

CITY           SKY/WX    TMP DP  RH WIND       PRES   REMARKS
OCEAN CITY     PTCLDY    30  19  63 NW5       30.13R
SALISBURY      PTCLDY    30  16  56 CALM      30.13R
CAMBRIDGE*     MOCLDY    30  14  51 CALM      30.13R
EASTON*        MOCLDY    30  13  48 N6        30.15R

$$

MDZ017>025-150600-
SOUTHERN MARYLAND

CITY           SKY/WX    TMP DP  RH WIND       PRES   REMARKS
PATUXENT RIVER PTCLDY    32  19  58 N6        30.11R
ST INIGOES     PTCLDY    30  21  69 CALM      30.11R
LEONARDTOWN*   PTCLDY    32  18  55 CALM      30.13R

$$

MDZ003>005-150600-
NORTH CENTRAL MARYLAND

CITY           SKY/WX    TMP DP  RH WIND       PRES   REMARKS
FREDERICK*     PTCLDY    28  10  47 N7        30.13F
HAGERSTOWN APT CLOUDY    25  12  58 NE5       30.08F
WESTMINSTER*   CLOUDY    25  12  58 NE3       30.07F

$$

MDZ501>502-150600-
WESTERN MARYLAND

CITY           SKY/WX    TMP DP  RH WIND       PRES   REMARKS
OAKLAND*       CLOUDY    16  14  93 CALM      29.89S
CUMBERLAND*    NOT AVBL

$$

VAZ025>031-150600-
SHENANDOAH VALLEY

CITY           SKY/WX    TMP DP  RH WIND       PRES   REMARKS
WINCHESTER*    CLOUDY    27  12  54 CALM      30.08R
FRONT ROYAL*   FAIR      27  16  63 MISG      30.07R
LURAY*         MOCLDY    28  19  69 N5        30.06R
NEW MARKET*    PTCLDY    28  18  66 CALM      30.04R
STAUNTON*      PTCLDY    24  19  80 CALM      30.05S
WAYNESBORO*    PTCLDY    26  19  74 CALM      30.03R

$$

WVZ021-048>050-054>055-150600-
EASTERN WEST VIRGINIA PANHANDLE

CITY           SKY/WX    TMP DP  RH WIND       PRES   REMARKS
MARTINSBURG    CLOUDY    25  11  55 NE6       30.08F
PETERSBURG*    CLOUDY    27  19  71 SE3       30.04F

$$

VAZ036>039-050-150600-
CENTRAL FOOTHILLS

CITY           SKY/WX    TMP DP  RH WIND       PRES   REMARKS
CHARLOTTESVILL PTCLDY    31  18  58 CALM      30.08R
CULPEPER*      FAIR      29  15  55 CALM      30.12R
ORANGE*        CLOUDY    28  19  69 CALM      30.09F
GORDONSVILLE*  CLOUDY    25  21  83 CALM      30.09S
WARRENTON*     PTCLDY    29  12  48 CALM      30.10S

$$

VAZ055>057-150600-
NORTH AND CENTRAL PIEDMONT

CITY           SKY/WX    TMP DP  RH WIND       PRES   REMARKS
FREDERICKSBRG* PTCLDY    32  19  58 N3        30.11F
STAFFORD*      PTCLDY    31  16  54 CALM      30.15S

$$

NCZ024-NYZ072-PAZ021-071-VAZ022-071-150600-
OTHER REGIONAL OBSERVATIONS

CITY           SKY/WX    TMP DP  RH WIND       PRES   REMARKS
NEW YORK CITY  CLEAR     23   6  48 VRB5      30.10S
PHILADELPHIA   PTCLDY    26   7  44 N12       30.13S WCI  16
PITTSBURGH     CLOUDY    17  11  77 CALM      30.04R
ROANOKE        PTCLDY    32  21  64 N3        30.04F
RICHMOND       CLOUDY    34  21  59 NE7       30.10S
RALEIGH        PTCLDY    36  25  64 NE5       30.03R

$$

ANZ530>537-150600-
MARINE OBSERVATIONS

STATION/POSITION TIME  TEMP    WIND        PRES
                       AIR SEA DIR/SP/G
                 (UTC) (F)     (DEG/KT/KT) (MB)
THOMAS PT LIGHT  0500   32 44   10/ 13/ 15   N/A
BALT KEY BRIDGE  0448   29      10/  8/ 10 1019.9R
COVE POINT       0448   34      40/ 12/ 16 1020.4R
LEWISETTA        0448   36 42   40/  5/ 11 1019.6S
SOLOMONS ISLAND  0448   34 45  360/  5/  6 1019.4R
PINEY POINT      0436           10/  6/  7   N/A

$$




USA.gov is the U.S. government's official web portal to all federal, state and local government web resources and services.